This is the latest recevied weather packets stored in our database for station/object HB9EYZ-1. If no packets are shown the sender has not sent any weather packets the latest 1 day(s).
| Time | Temp. | Humidity | Pressure | Rain* | Wind** | Luminosity | Snow |
|---|---|---|---|---|---|---|---|
| 1778060107 | 13.89° C | 37% | 1003 hPa | 0 mm | - | - | - |
| 1778059172 | 14.44° C | 33% | 1003.1 hPa | 0 mm | - | - | - |
| 1778057903 | 13.89° C | 32% | 1002.9 hPa | 0 mm | - | - | - |
| 1778057586 | 13.89° C | 32% | 1002.9 hPa | 0 mm | - | - | - |
| 1778056950 | 13.89° C | 31% | 1003 hPa | 0 mm | - | - | - |
| 1778056631 | 13.89° C | 31% | 1003.2 hPa | 0 mm | - | - | - |
| 1778055997 | 13.89° C | 32% | 1003 hPa | 0 mm | - | - | - |
| 1778055680 | 13.89° C | 31% | 1002.9 hPa | 0 mm | - | - | - |
| 1778055047 | 13.89° C | 31% | 1002.7 hPa | 0 mm | - | - | - |
| 1778054412 | 13.89° C | 31% | 1002.7 hPa | 0 mm | - | - | - |
| 1778053776 | 13.33° C | 31% | 1002.8 hPa | 0 mm | - | - | - |
| 1778053140 | 12.78° C | 32% | 1002.8 hPa | 0 mm | - | - | - |
| 1778052823 | 12.78° C | 33% | 1002.6 hPa | 0 mm | - | - | - |
| 1778052507 | 12.78° C | 33% | 1003 hPa | 0 mm | - | - | - |
| 1778052190 | 12.78° C | 33% | 1002.8 hPa | 0 mm | - | - | - |
| 1778051557 | 12.22° C | 32% | 1003 hPa | 0 mm | - | - | - |
| 1778051238 | 12.22° C | 32% | 1003 hPa | 0 mm | - | - | - |
| 1778050604 | 11.67° C | 33% | 1002.8 hPa | 0 mm | - | - | - |
| 1778050287 | 11.67° C | 34% | 1003.1 hPa | 0 mm | - | - | - |
| 1778049970 | 11.67° C | 35% | 1002.7 hPa | 0 mm | - | - | - |
| 1778049653 | 11.67° C | 36% | 1002.8 hPa | 0 mm | - | - | - |
| 1778049336 | 11.11° C | 36% | 1002.8 hPa | 0 mm | - | - | - |
| 1778048700 | 11.11° C | 38% | 1002.9 hPa | 0 mm | - | - | - |
| 1778047746 | 10.56° C | 42% | 1002.9 hPa | 0 mm | - | - | - |
| 1778047428 | 10.56° C | 43% | 1002.9 hPa | 0 mm | - | - | - |
* Rain latest hour (hover to see other rain measurements)
** Current wind speed in m/s (hover to see current wind gust speed)